{"data":{"norad_id":45096,"epoch":"2026-05-25T03:46:03.021024Z","epoch_age_seconds":72162,"freshness":"FRESH","line1":"1 45096U 20006BE  26145.15697941  .00049657  00000+0  96707-3 0  9994","line2":"2 45096  53.0344 203.2845 0004016  23.0474 337.0711 15.47081797349399","mean_motion":15.47081797,"eccentricity":0.0004016,"inclination_deg":53.0344,"raan_deg":203.2845,"arg_perigee_deg":23.0474,"mean_anomaly_deg":337.0711,"bstar":0.00096707,"rev_number":34939,"period_min":93.078465714764,"perigee_km":422.53573655259,"apogee_km":428.00023143574,"semimajor_km":6803.4049839942,"source":"CELESTRAK","updated_at":"2026-05-25T13:38:16.380521Z"}}